Location: Bachas
(43.2439°N, 0.9375°E)
Time: 05:44:45
(UTC+00:00)

Iridium 51 - Pass Details

Date: 18 February 2020
Orbit: 459 x 743 km, 86.4° (Epoch: 09 April)

Event Time Altitude Azimuth Distance (km) Brightness Sun altitude
Rises 06:16:53 0° 184° (S) 2,796 8.0 -6.9°
Reaches altitude 10° 06:19:08 10° 185° (S) 1,854 7.1 -6.5°
Maximum altitude 06:23:11 79° 273° (W) 546 4.2 -5.7°
Drops below altitude 10° 06:26:55 10° 0° (N) 1,721 6.7 -5.1°
Sets 06:28:58 0° 2° (N) 2,577 7.6 -4.7°
